Time,TemperatureF,DewpointF,PressureIn,WindDirection,WindDirectionDegrees,WindSpeedMPH,WindSpeedGustMPH,Humidity,HourlyPrecipIn,Conditions,Clouds,dailyrainin,SolarRadiationWatts/m^2,SoftwareType,DateUTC
2013-01-26 00:22:00,47.0,-99.9,-100.00,ESE,117,4.0,7.0,-999,0.00,,,0.00,0.000000,,2013-01-26 10:22:00,
2013-01-26 00:32:00,47.0,-99.9,-100.00,ESE,117,4.0,7.0,-999,0.00,,,0.00,0.000000,,2013-01-26 10:32:00,
2013-01-26 00:43:00,47.0,-99.9,-100.00,ESE,117,4.0,7.0,-999,0.00,,,0.00,0.000000,,2013-01-26 10:43:00,
2013-01-26 00:52:00,47.0,-99.9,-100.00,ESE,117,4.0,7.0,-999,0.00,,,0.00,0.000000,,2013-01-26 10:52:00,
2013-01-26 01:22:00,43.0,-99.9,-100.00,ESE,118,5.0,7.0,-999,0.00,,,0.00,0.000000,,2013-01-26 11:22:00,
2013-01-26 01:32:00,43.0,-99.9,-100.00,ESE,118,5.0,7.0,-999,0.00,,,0.00,0.000000,,2013-01-26 11:32:00,
2013-01-26 01:42:00,43.0,-99.9,-100.00,ESE,118,5.0,7.0,-999,0.00,,,0.00,0.000000,,2013-01-26 11:42:00,
2013-01-26 01:53:00,43.0,-99.9,-100.00,ESE,118,5.0,7.0,-999,0.00,,,0.00,0.000000,,2013-01-26 11:53:00,
2013-01-26 02:23:00,44.0,-99.9,-100.00,ESE,112,6.0,8.0,-999,0.00,,,0.00,0.000000,,2013-01-26 12:23:00,
2013-01-26 02:33:00,44.0,-99.9,-100.00,ESE,112,6.0,8.0,-999,0.00,,,0.00,0.000000,,2013-01-26 12:33:00,
2013-01-26 02:42:00,44.0,-99.9,-100.00,ESE,112,6.0,8.0,-999,0.00,,,0.00,0.000000,,2013-01-26 12:42:00,
2013-01-26 02:53:00,44.0,-99.9,-100.00,ESE,112,6.0,8.0,-999,0.00,,,0.00,0.000000,,2013-01-26 12:53:00,
2013-01-26 03:22:00,43.0,-99.9,-100.00,ESE,113,5.0,8.0,-999,0.00,,,0.00,0.000000,,2013-01-26 13:22:00,
2013-01-26 03:33:00,43.0,-99.9,-100.00,ESE,113,5.0,8.0,-999,0.00,,,0.00,0.000000,,2013-01-26 13:33:00,
2013-01-26 03:42:00,43.0,-99.9,-100.00,ESE,113,5.0,8.0,-999,0.00,,,0.00,0.000000,,2013-01-26 13:42:00,
2013-01-26 03:53:00,43.0,-99.9,-100.00,ESE,113,5.0,8.0,-999,0.00,,,0.00,0.000000,,2013-01-26 13:53:00,
2013-01-26 04:22:00,41.0,-99.9,-100.00,SE,130,5.0,8.0,-999,0.00,,,0.00,0.000000,,2013-01-26 14:22:00,
2013-01-26 04:32:00,41.0,-99.9,-100.00,SE,130,5.0,8.0,-999,0.00,,,0.00,0.000000,,2013-01-26 14:32:00,
2013-01-26 04:43:00,41.0,-99.9,-100.00,SE,130,5.0,8.0,-999,0.00,,,0.00,0.000000,,2013-01-26 14:43:00,
2013-01-26 04:53:00,41.0,-99.9,-100.00,SE,130,5.0,8.0,-999,0.00,,,0.00,0.000000,,2013-01-26 14:53:00,
2013-01-26 05:22:00,43.0,-99.9,-100.00,ESE,113,6.0,7.0,-999,0.00,,,-99.99,0.000000,,2013-01-26 15:22:00,
2013-01-26 05:33:00,43.0,-99.9,-100.00,ESE,113,6.0,7.0,-999,0.00,,,-99.99,0.000000,,2013-01-26 15:33:00,
2013-01-26 05:43:00,43.0,-99.9,-100.00,ESE,113,6.0,7.0,-999,0.00,,,-99.99,0.000000,,2013-01-26 15:43:00,
2013-01-26 05:53:00,43.0,-99.9,-100.00,ESE,113,6.0,7.0,-999,0.00,,,-99.99,0.000000,,2013-01-26 15:53:00,
2013-01-26 08:22:00,48.0,-99.9,-100.00,SSE,164,3.0,7.0,-999,-99.99,,,0.00,,,2013-01-26 18:22:00,
2013-01-26 08:33:00,48.0,-99.9,-100.00,SSE,164,3.0,7.0,-999,-99.99,,,0.00,,,2013-01-26 18:33:00,
2013-01-26 08:42:00,48.0,-99.9,-100.00,SSE,164,3.0,7.0,-999,-99.99,,,0.00,,,2013-01-26 18:42:00,
2013-01-26 08:53:00,48.0,-99.9,-100.00,SSE,164,3.0,7.0,-999,-99.99,,,0.00,,,2013-01-26 18:53:00,
2013-01-26 09:23:00,63.0,-99.9,-100.00,WNW,303,3.0,6.0,-999,0.00,,,0.00,359.000000,,2013-01-26 19:23:00,
2013-01-26 09:33:00,63.0,-99.9,-100.00,WNW,303,3.0,6.0,-999,0.00,,,0.00,359.000000,,2013-01-26 19:33:00,
2013-01-26 09:43:00,63.0,-99.9,-100.00,WNW,303,3.0,6.0,-999,0.00,,,0.00,359.000000,,2013-01-26 19:43:00,
2013-01-26 09:53:00,63.0,-99.9,-100.00,WNW,303,3.0,6.0,-999,0.00,,,0.00,359.000000,,2013-01-26 19:53:00,
2013-01-26 10:22:00,63.0,-99.9,-100.00,NW,304,6.0,12.0,-999,0.00,,,0.00,602.000000,,2013-01-26 20:22:00,
2013-01-26 10:32:00,63.0,-99.9,-100.00,NW,304,6.0,12.0,-999,0.00,,,0.00,602.000000,,2013-01-26 20:32:00,
2013-01-26 10:42:00,63.0,-99.9,-100.00,NW,304,6.0,12.0,-999,0.00,,,0.00,602.000000,,2013-01-26 20:42:00,
2013-01-26 10:52:00,63.0,-99.9,-100.00,NW,304,6.0,12.0,-999,0.00,,,0.00,602.000000,,2013-01-26 20:52:00,
2013-01-26 11:23:00,66.0,-99.9,-100.00,NW,317,6.0,12.0,-999,0.00,,,0.00,784.000000,,2013-01-26 21:23:00,
2013-01-26 11:32:00,66.0,-99.9,-100.00,NW,317,6.0,12.0,-999,0.00,,,0.00,784.000000,,2013-01-26 21:32:00,
2013-01-26 11:43:00,66.0,-99.9,-100.00,NW,317,6.0,12.0,-999,0.00,,,0.00,784.000000,,2013-01-26 21:43:00,
2013-01-26 11:52:00,66.0,-99.9,-100.00,NW,317,6.0,12.0,-999,0.00,,,0.00,784.000000,,2013-01-26 21:52:00,
2013-01-26 12:22:00,67.0,-99.9,-100.00,North,349,7.0,18.0,-999,0.00,,,0.00,911.000000,,2013-01-26 22:22:00,
2013-01-26 12:32:00,67.0,-99.9,-100.00,North,349,7.0,18.0,-999,0.00,,,0.00,911.000000,,2013-01-26 22:32:00,
2013-01-26 12:42:00,67.0,-99.9,-100.00,North,349,7.0,18.0,-999,0.00,,,0.00,911.000000,,2013-01-26 22:42:00,
2013-01-26 12:52:00,67.0,-99.9,-100.00,North,349,7.0,18.0,-999,0.00,,,0.00,911.000000,,2013-01-26 22:52:00,
2013-01-26 13:22:00,66.0,-99.9,-100.00,NNW,345,7.0,16.0,-999,0.00,,,0.00,858.000000,,2013-01-26 23:22:00,
2013-01-26 13:33:00,66.0,-99.9,-100.00,NNW,345,7.0,16.0,-999,0.00,,,0.00,858.000000,,2013-01-26 23:33:00,
2013-01-26 13:42:00,66.0,-99.9,-100.00,NNW,345,7.0,16.0,-999,0.00,,,0.00,858.000000,,2013-01-26 23:42:00,
2013-01-26 13:52:00,66.0,-99.9,-100.00,NNW,345,7.0,16.0,-999,0.00,,,0.00,858.000000,,2013-01-26 23:52:00,
2013-01-26 14:21:00,65.0,44.0,-100.00,NNW,345,7.0,16.0,46,0.00,,,0.00,818.000000,,2013-01-27 00:21:00,
2013-01-26 14:32:00,65.0,44.0,-100.00,NNW,345,7.0,16.0,46,0.00,,,0.00,818.000000,,2013-01-27 00:32:00,
2013-01-26 14:41:00,65.0,44.0,-100.00,NNW,345,7.0,16.0,46,0.00,,,0.00,818.000000,,2013-01-27 00:41:00,
2013-01-26 14:51:00,65.0,44.0,-100.00,NNW,345,7.0,16.0,46,0.00,,,0.00,818.000000,,2013-01-27 00:51:00,
2013-01-26 15:22:00,61.0,-99.9,-100.00,North,352,7.0,19.0,-999,0.00,,,0.00,406.000000,,2013-01-27 01:22:00,
2013-01-26 15:32:00,61.0,-99.9,-100.00,North,352,7.0,19.0,-999,0.00,,,0.00,406.000000,,2013-01-27 01:32:00,
2013-01-26 15:42:00,61.0,-99.9,-100.00,North,352,7.0,19.0,-999,0.00,,,0.00,406.000000,,2013-01-27 01:42:00,
2013-01-26 15:52:00,61.0,-99.9,-100.00,North,352,7.0,19.0,-999,0.00,,,0.00,406.000000,,2013-01-27 01:52:00,
2013-01-26 16:22:00,58.0,-99.9,-100.00,NNW,345,7.0,16.0,-999,0.00,,,0.00,209.000000,,2013-01-27 02:22:00,
2013-01-26 16:32:00,58.0,-99.9,-100.00,NNW,345,7.0,16.0,-999,0.00,,,0.00,209.000000,,2013-01-27 02:32:00,
2013-01-26 16:42:00,58.0,-99.9,-100.00,NNW,345,7.0,16.0,-999,0.00,,,0.00,209.000000,,2013-01-27 02:42:00,
2013-01-26 16:52:00,58.0,-99.9,-100.00,NNW,345,7.0,16.0,-999,0.00,,,0.00,209.000000,,2013-01-27 02:52:00,
2013-01-26 17:22:00,58.0,-99.9,-100.00,North,354,5.0,12.0,-999,0.00,,,0.00,93.000000,,2013-01-27 03:22:00,
2013-01-26 17:32:00,58.0,-99.9,-100.00,North,354,5.0,12.0,-999,0.00,,,0.00,93.000000,,2013-01-27 03:32:00,
2013-01-26 17:42:00,58.0,-99.9,-100.00,North,354,5.0,12.0,-999,0.00,,,0.00,93.000000,,2013-01-27 03:42:00,
2013-01-26 17:52:00,58.0,-99.9,-100.00,North,354,5.0,12.0,-999,0.00,,,0.00,93.000000,,2013-01-27 03:52:00,
2013-01-26 18:22:00,56.0,-99.9,-100.00,NW,323,3.0,11.0,-999,0.00,,,0.00,17.000000,,2013-01-27 04:22:00,
2013-01-26 18:32:00,56.0,-99.9,-100.00,NW,323,3.0,11.0,-999,0.00,,,0.00,17.000000,,2013-01-27 04:32:00,
2013-01-26 18:42:00,56.0,-99.9,-100.00,NW,323,3.0,11.0,-999,0.00,,,0.00,17.000000,,2013-01-27 04:42:00,
2013-01-26 18:52:00,56.0,-99.9,-100.00,NW,323,3.0,11.0,-999,0.00,,,0.00,17.000000,,2013-01-27 04:52:00,
2013-01-26 19:22:00,55.0,-99.9,-100.00,NNW,331,3.0,7.0,-999,0.00,,,0.00,1.000000,,2013-01-27 05:22:00,
2013-01-26 19:32:00,55.0,-99.9,-100.00,NNW,331,3.0,7.0,-999,0.00,,,0.00,1.000000,,2013-01-27 05:32:00,
2013-01-26 19:42:00,55.0,-99.9,-100.00,NNW,331,3.0,7.0,-999,0.00,,,0.00,1.000000,,2013-01-27 05:42:00,
2013-01-26 19:52:00,55.0,-99.9,-100.00,NNW,331,3.0,7.0,-999,0.00,,,0.00,1.000000,,2013-01-27 05:52:00,
2013-01-26 20:22:00,53.0,-99.9,-100.00,WNW,294,1.0,6.0,-999,0.00,,,0.00,0.000000,,2013-01-27 06:22:00,
2013-01-26 20:32:00,53.0,-99.9,-100.00,WNW,294,1.0,6.0,-999,0.00,,,0.00,0.000000,,2013-01-27 06:32:00,
2013-01-26 20:42:00,53.0,-99.9,-100.00,WNW,294,1.0,6.0,-999,0.00,,,0.00,0.000000,,2013-01-27 06:42:00,
2013-01-26 20:52:00,53.0,-99.9,-100.00,WNW,294,1.0,6.0,-999,0.00,,,0.00,0.000000,,2013-01-27 06:52:00,
2013-01-26 21:21:00,47.0,46.0,-100.00,ESE,113,2.0,4.0,96,0.00,,,0.00,0.000000,,2013-01-27 07:21:00,
2013-01-26 21:31:00,47.0,46.0,-100.00,ESE,113,2.0,4.0,96,0.00,,,0.00,0.000000,,2013-01-27 07:31:00,
2013-01-26 21:41:00,47.0,46.0,-100.00,ESE,113,2.0,4.0,96,0.00,,,0.00,0.000000,,2013-01-27 07:41:00,
2013-01-26 21:51:00,47.0,46.0,-100.00,ESE,113,2.0,4.0,96,0.00,,,0.00,0.000000,,2013-01-27 07:51:00,
2013-01-26 22:22:00,43.0,-99.9,-100.00,East,89,5.0,5.0,-999,0.00,,,0.00,0.000000,,2013-01-27 08:22:00,
2013-01-26 22:32:00,43.0,-99.9,-100.00,East,89,5.0,5.0,-999,0.00,,,0.00,0.000000,,2013-01-27 08:32:00,
2013-01-26 22:42:00,43.0,-99.9,-100.00,East,89,5.0,5.0,-999,0.00,,,0.00,0.000000,,2013-01-27 08:42:00,
2013-01-26 22:52:00,43.0,-99.9,-100.00,East,89,5.0,5.0,-999,0.00,,,0.00,0.000000,,2013-01-27 08:52:00,
2013-01-26 23:22:00,40.0,-99.9,-100.00,ESE,115,6.0,6.0,-999,0.00,,,0.00,0.000000,,2013-01-27 09:22:00,
2013-01-26 23:32:00,40.0,-99.9,-100.00,ESE,115,6.0,6.0,-999,0.00,,,0.00,0.000000,,2013-01-27 09:32:00,
2013-01-26 23:42:00,40.0,-99.9,-100.00,ESE,115,6.0,6.0,-999,0.00,,,0.00,0.000000,,2013-01-27 09:42:00,
2013-01-26 23:52:00,40.0,-99.9,-100.00,ESE,115,6.0,6.0,-999,0.00,,,0.00,0.000000,,2013-01-27 09:52:00,